Location: Bailleul
(50.3375°N, 2.8513°E)
Time: 03:32:47
(UTC+00:00)

Cosmos 1980 - Pass Details

Date: 24 October 2021
Orbit: 839 x 847 km, 71.0° (Epoch: 01 December)

Event Time Altitude Azimuth Distance (km) Brightness Sun altitude
Rises 05:05:21 0° 332° (NNW) 3,408 6.6 -13.4°
Reaches altitude 10° 05:07:53 10° 337° (NNW) 2,471 5.9 -13.0°
Maximum altitude 05:13:25 51° 54° (NE) 1,053 4.5 -12.2°
Drops below altitude 10° 05:18:55 10° 130° (SE) 2,463 7.0 -11.3°
Sets 05:21:26 0° 135° (SE) 3,395 7.7 -10.9°
